[[{"header":{"parameterUnit":"m.s-1","parameterCategory":1,"la1":30.2991,"la2":30.254,"lo1":-89.0895,"lo2":-89.0444,"dy":0.0017,"dx":0.0017,"nx":28,"ny":28,"refTime":"2024-04-02T03:00:00:Z","depth":0,"parameterNumber":2,"parameterNumberName":"U-component_of_WINDS"},"data":[0,0,0,0,0,0,0,0,0,0,0,0,0,0,0,0,0,0,0,0,0,0,0,0,0,0,0,0,0,0,0,0,0,0,0,0,0,0,0,0,0,0,0,0,0,0,0,0,0,0,0,0,0,0,0,0,0,0,-2.701,-2.7011,0,-2.7132,-2.7133,-2.7134,-2.7162,-2.7161,-2.716,-2.7159,-2.7283,-2.7287,-2.7291,0,0,0,0,0,0,0,0,0,0,0,0,0,-2.6801,-2.6805,-2.701,-2.7012,-2.7013,-2.7131,-2.7133,-2.7135,-2.7162,-2.7161,-2.716,-2.7159,-2.7282,-2.7286,-2.7291,0,0,0,0,0,0,0,0,0,0,0,0,0,-2.6904,-2.6806,-2.701,-2.7041,-2.7045,-2.7131,-2.7133,-2.7135,-2.7162,-2.7161,-2.7159,-2.7158,-2.728,-2.7286,-2.7292,-2.7356,0,0,-2.7311,-2.7313,0,0,0,0,0,0,0,0,-2.6898,-2.6912,-2.7035,-2.7039,-2.7043,-2.713,-2.7105,-2.7209,-2.7162,-2.7117,-2.7159,-2.7158,-2.7233,-2.7243,-2.7269,-2.7362,-2.7367,-2.7311,-2.7315,-2.7318,-2.7319,0,0,0,0,0,0,0,-2.6891,-2.6907,-2.7058,-2.7036,-2.7042,-2.7049,-2.7062,-2.7125,-2.7181,-2.7121,-2.7124,-2.7138,-2.7235,-2.7263,-2.7272,-2.7369,-2.7311,-2.7317,-2.732,-2.7323,-2.752,-2.7521,0,0,0,0,0,0,-2.6879,-2.6901,-2.7054,-2.7062,-2.6966,-2.7054,-2.7068,-2.7104,-2.718,-2.7191,-2.7139,-2.7138,-2.7253,-2.7265,-2.7276,-2.7355,-2.7318,-2.7323,-2.7327,-2.7518,-2.752,-2.7522,0,0,0,0,0,0,-2.6874,-2.6892,-2.7049,-2.6982,-2.7003,-2.7058,-2.7098,-2.7107,-2.7134,-2.7193,-2.7204,-2.7156,-2.7252,-2.7268,-2.7336,-2.736,-2.7326,-2.7332,-2.7516,-2.7519,-2.7521,-2.7514,0,0,0,0,0,0,-2.6868,-2.689,-2.6915,-2.6982,-2.7006,-2.7107,-2.7099,-2.711,-2.7145,-2.7146,-2.7213,-2.7223,-2.7252,-2.7326,-2.7342,-2.7368,-2.7337,-2.7514,-2.7518,-2.752,-2.7512,-2.7515,-2.7518,0,0,0,0,0,-2.6861,-2.6908,-2.6916,-2.6935,-2.7038,-2.7108,-2.7122,-2.7155,-2.7146,-2.7172,-2.721,-2.722,-2.7355,-2.7333,-2.7351,-2.7379,-2.7513,-2.7517,-2.752,-2.751,-2.7515,-2.7518,0,0,0,0,0,0,-2.6842,-2.6918,-2.6927,-2.6998,-2.7046,-2.7113,-2.7145,-2.7159,-2.721,-2.7209,-2.7248,-2.7263,-2.7329,-2.7361,-2.7335,-2.7444,-2.7434,-2.7441,-2.742,-2.7425,-2.7428,-2.7418,-2.7342,0,0,0,0,0,-2.6846,-2.6897,-2.696,-2.7017,-2.7041,-2.7089,-2.7121,-2.7142,-2.7194,-2.7214,-2.7258,-2.7307,-2.7361,-2.7395,-2.7448,-2.7518,-2.7532,-2.7546,-2.7549,-2.7551,-2.7556,-2.7595,-2.7601,-2.7533,-2.7533,-2.7533,0,0,-2.6855,-2.6903,-2.6932,-2.7014,-2.7054,-2.7105,-2.7106,-2.716,-2.7198,-2.7223,-2.7289,-2.7323,-2.7381,-2.745,-2.7483,-2.7479,-2.7579,-2.7556,-2.7557,-2.7561,-2.7599,-2.7605,-2.7611,-2.7536,-2.7535,-2.7535,0,0,-2.6897,-2.6939,-2.699,-2.7031,-2.7091,-2.7123,-2.7135,-2.72,-2.7223,-2.7291,-2.731,-2.7357,-2.7448,-2.7488,-2.7521,-2.7579,-2.7591,-2.7596,-2.7612,-2.7649,-2.7654,-2.7659,-2.7679,-2.7685,-2.7601,-2.7601,-2.7601,0,-2.6901,-2.6979,-2.7015,-2.7068,-2.7103,-2.7128,-2.718,-2.7218,-2.7292,-2.7316,-2.7311,-2.7426,-2.7468,-2.7546,-2.756,-2.7586,-2.7601,-2.7587,-2.7651,-2.7656,-2.7661,-2.768,-2.7687,-2.7601,-2.7601,-2.7601,-2.7601,0,-2.6979,-2.7033,-2.7067,-2.7139,-2.7178,-2.723,-2.7274,-2.731,-2.7329,-2.7361,-2.743,-2.748,-2.7543,-2.7564,-2.7582,-2.7645,-2.764,-2.7643,-2.7632,-2.7667,-2.7685,-2.7693,-2.7601,-2.7601,-2.7601,-2.7601,0,0,-2.7011,-2.7103,-2.7114,-2.7147,-2.7216,-2.7259,-2.7313,-2.7374,-2.7403,-2.7455,-2.75,-2.7578,-2.758,-2.7617,-2.7641,-2.7674,-2.7715,-2.7672,-2.7674,-2.7677,-2.7786,-2.7782,-2.779,-2.7724,-2.7726,-2.7727,-2.778,0,-2.7061,-2.7157,-2.7191,-2.7271,-2.732,-2.7346,-2.7392,-2.744,-2.7472,-2.7519,-2.7555,-2.7608,-2.7608,-2.7631,-2.7665,-2.7703,-2.7737,-2.77,-2.7766,-2.7768,-2.7748,-2.78,-2.7797,-2.7845,-2.7788,-2.7789,-2.779,0,-2.7131,-2.7183,-2.7267,-2.733,-2.7352,-2.7393,-2.7452,-2.7498,-2.7552,-2.7573,-2.7615,-2.7637,-2.7693,-2.7681,-2.776,-2.7734,-2.7763,-2.7786,-2.7789,-2.7795,-2.7779,-2.7806,-2.7861,-2.7867,-2.7802,-2.7801,-2.7801,0,-2.7144,-2.7235,-2.7297,-2.7324,-2.74,-2.7428,-2.7461,-2.7514,-2.7549,-2.7601,-2.7624,-2.7682,-2.7714,-2.7758,-2.7795,-2.7783,-2.787,-2.7861,-2.7888,-2.7887,-2.7904,-2.7902,-2.7962,-2.7926,-2.7926,-2.7925,-2.7925,0,-2.7194,-2.7244,-2.7303,-2.7341,-2.7398,-2.7438,-2.7493,-2.7527,-2.7575,-2.762,-2.7646,-2.7687,-2.7735,-2.7782,-2.7812,-2.7872,-2.7886,-2.7904,-2.7911,-2.7901,-2.7898,-2.7919,-2.7916,-2.7927,-2.7927,-2.7927,-2.7926,0,-2.7217,-2.7259,-2.7328,-2.7394,-2.7412,-2.7451,-2.7507,-2.7545,-2.7579,-2.7635,-2.7651,-2.7704,-2.7761,-2.7803,-2.7878,-2.7897,-2.7961,-2.7969,-2.7942,-2.7945,-2.797,-2.7966,-2.8044,-2.8056,-2.8013,-2.8013,-2.8013,0,-2.7245,-2.7284,-2.7355,-2.7387,-2.7419,-2.7471,-2.7507,-2.7547,-2.7584,-2.7649,-2.7679,-2.7738,-2.7788,-2.7878,-2.7923,-2.798,-2.7989,-2.8012,-2.7997,-2.7985,-2.7987,-2.7983,-2.7987,-2.8013,-2.8014,-2.8014,-2.8014,0,-2.7291,-2.731,-2.736,-2.7418,-2.746,-2.7508,-2.7556,-2.7581,-2.763,-2.767,-2.7729,-2.7767,-2.7843,-2.7902,-2.7963,-2.7997,-2.8013,-2.8019,-2.8028,-2.8017,-2.7999,-2.8007,-2.7946,-2.8016,-2.8016,-2.8016,-2.8016,-2.8016,-2.7316,-2.7352,-2.7407,-2.7462,-2.7503,-2.7547,-2.7586,-2.7625,-2.7675,-2.774,-2.7761,-2.7822,-2.7876,-2.796,-2.7995,-2.8043,-2.8042,-2.8056,-2.8059,-2.8061,-2.806,-2.7993,-2.8055,-2.8055,-2.8055,-2.8055,-2.8055,0,-2.7362,-2.7399,-2.7449,-2.7516,-2.7559,-2.7572,-2.7626,-2.7661,-2.7715,-2.7764,-2.7812,-2.788,-2.7937,-2.7987,-2.8046,-2.8075,-2.8084,-2.8089,-2.8086,-2.8093,-2.8058,-2.8043,-2.808,-2.808,-2.808,-2.808,-2.808,-2.808,-2.739,-2.7451,-2.7476,-2.7557,-2.7594,-2.7654,-2.7684,-2.7725,-2.7764,-2.7838,-2.7886,-2.7918,-2.7968,-2.8031,-2.8083,-2.8097,-2.8116,-2.8119,-2.8134,-2.8099,-2.8096,-2.8093,-2.808,-2.8124,-2.8124,-2.8166,-2.8166,-2.8166]},{"header":{"parameterUnit":"m.s-1","parameterCategory":1,"la1":30.2991,"la2":30.254,"lo1":-89.0895,"lo2":-89.0444,"dy":0.0017,"dx":0.0017,"nx":28,"ny":28,"refTime":"2024-04-02T03:00:00:Z","depth":0,"parameterNumber":3,"parameterNumberName":"V-component_of_WINDS"},"data":[0,0,0,0,0,0,0,0,0,0,0,0,0,0,0,0,0,0,0,0,0,0,0,0,0,0,0,0,0,0,0,0,0,0,0,0,0,0,0,0,0,0,0,0,0,0,0,0,0,0,0,0,0,0,0,0,0,0,5.4799,5.48,0,5.4879,5.488,5.488,5.4843,5.4841,5.4839,5.4837,5.4913,5.4917,5.4921,0,0,0,0,0,0,0,0,0,0,0,0,0,5.461,5.4613,5.4799,5.48,5.4801,5.4879,5.488,5.4881,5.4843,5.4841,5.4838,5.4836,5.4912,5.4917,5.4921,0,0,0,0,0,0,0,0,0,0,0,0,0,5.4691,5.4615,5.4799,5.4792,5.4792,5.4878,5.488,5.4881,5.4844,5.4841,5.4838,5.4835,5.4911,5.4916,5.4922,5.5018,0,0,5.494,5.4942,0,0,0,0,0,0,0,0,5.4686,5.4698,5.4792,5.4792,5.4793,5.4848,5.4841,5.4927,5.4845,5.4824,5.4837,5.4834,5.4894,5.4901,5.4922,5.5022,5.5025,5.494,5.4944,5.4946,5.4948,0,0,0,0,0,0,0,5.4681,5.4694,5.483,5.4793,5.4794,5.4783,5.4791,5.4857,5.4874,5.4826,5.4823,5.4833,5.4893,5.4917,5.4924,5.5026,5.494,5.4945,5.4949,5.4951,5.5211,5.5214,0,0,0,0,0,0,5.4676,5.469,5.4828,5.4833,5.4731,5.4789,5.4798,5.4833,5.4874,5.4877,5.4836,5.4831,5.4908,5.4917,5.4926,5.5044,5.4946,5.4952,5.4955,5.5207,5.5212,5.5215,0,0,0,0,0,0,5.4672,5.4689,5.4824,5.4761,5.4777,5.4796,5.4835,5.4836,5.486,5.4882,5.4884,5.4857,5.4906,5.4918,5.4996,5.5046,5.4954,5.496,5.5203,5.5209,5.5213,5.5278,0,0,0,0,0,0,5.4667,5.4687,5.4725,5.4762,5.4781,5.4895,5.4838,5.484,5.4871,5.4865,5.4902,5.4905,5.4905,5.4988,5.5002,5.5052,5.4964,5.5199,5.5206,5.5212,5.5271,5.5284,5.5296,0,0,0,0,0,5.466,5.4738,5.4727,5.4744,5.4829,5.4898,5.4909,5.4908,5.4875,5.4912,5.4927,5.4904,5.5038,5.4996,5.5012,5.5064,5.5196,5.5204,5.5211,5.5266,5.5282,5.5295,0,0,0,0,0,0,5.4705,5.4743,5.4731,5.4824,5.4858,5.4892,5.4939,5.4925,5.4968,5.4961,5.4957,5.4965,5.5047,5.5063,5.5017,5.516,5.5111,5.5123,5.5148,5.5163,5.5175,5.517,5.4969,0,0,0,0,0,5.4726,5.4781,5.481,5.4889,5.4907,5.4921,5.495,5.4948,5.4982,5.4996,5.5016,5.5049,5.5099,5.5131,5.5178,5.5273,5.5281,5.5316,5.5329,5.5338,5.5349,5.5402,5.5419,5.524,5.524,5.524,0,0,5.4769,5.4797,5.4831,5.4899,5.4925,5.4981,5.4933,5.4993,5.5035,5.5004,5.5081,5.5097,5.5133,5.5222,5.5261,5.5237,5.54,5.5348,5.5356,5.5361,5.5412,5.5428,5.5443,5.5245,5.5244,5.5244,0,0,5.4877,5.4903,5.4973,5.5001,5.5043,5.5051,5.5068,5.5104,5.5114,5.5191,5.517,5.5218,5.5303,5.5331,5.5356,5.5477,5.5458,5.5491,5.5555,5.5607,5.5621,5.5634,5.5679,5.5695,5.5501,5.5501,5.5501,0,5.4925,5.5011,5.501,5.5074,5.5105,5.5082,5.5153,5.5179,5.5232,5.5254,5.5226,5.5335,5.5357,5.5452,5.5482,5.5502,5.5522,5.5488,5.562,5.5632,5.5644,5.5687,5.5703,5.5505,5.5505,5.5504,5.5504,0,5.5069,5.5128,5.5179,5.5235,5.5271,5.5338,5.5347,5.5383,5.5377,5.5388,5.5467,5.5494,5.5547,5.5568,5.5562,5.5663,5.5648,5.562,5.5571,5.5665,5.5705,5.5721,5.5511,5.551,5.5508,5.5507,0,0,5.5207,5.5264,5.5283,5.5309,5.5353,5.5398,5.5463,5.5517,5.555,5.5587,5.5642,5.5715,5.5691,5.572,5.5716,5.5761,5.5858,5.5728,5.5729,5.5753,5.5973,5.5995,5.6014,5.5845,5.5848,5.585,5.5971,0,5.5321,5.5438,5.544,5.5548,5.5603,5.5583,5.564,5.5673,5.5685,5.5732,5.5744,5.5798,5.576,5.5778,5.5822,5.5837,5.5902,5.5828,5.5896,5.5899,5.589,5.6035,5.6058,5.617,5.5986,5.5989,5.599,0,5.5468,5.5514,5.5628,5.5667,5.569,5.5742,5.5792,5.5838,5.5875,5.588,5.5914,5.5903,5.5969,5.5917,5.6009,5.5958,5.5986,5.5997,5.6002,5.6009,5.5952,5.6048,5.6206,5.6224,5.6015,5.6013,5.6011,0,5.5561,5.5651,5.5731,5.5753,5.58,5.5837,5.5857,5.5891,5.5924,5.5967,5.5989,5.6038,5.6066,5.6103,5.6107,5.6068,5.6199,5.6147,5.6206,5.6206,5.6236,5.6234,5.6402,5.625,5.625,5.625,5.6249,0,5.5689,5.576,5.5774,5.5824,5.5903,5.5903,5.5981,5.5998,5.6029,5.6081,5.6064,5.6113,5.6113,5.6162,5.6165,5.6241,5.6252,5.6259,5.6259,5.6262,5.6261,5.6281,5.6274,5.6254,5.6253,5.6252,5.6252,0,5.5806,5.5819,5.5905,5.5943,5.5954,5.6011,5.6042,5.6089,5.61,5.6166,5.6181,5.6198,5.6255,5.6262,5.6328,5.6329,5.6422,5.6413,5.6411,5.641,5.647,5.6465,5.6658,5.6684,5.6513,5.6515,5.6516,0,5.5888,5.5943,5.5987,5.6022,5.6046,5.6101,5.6136,5.6138,5.6174,5.6221,5.6263,5.6319,5.6364,5.6457,5.6474,5.6525,5.6518,5.6582,5.6525,5.6527,5.6521,5.6519,5.6525,5.6593,5.6595,5.6597,5.6598,0,5.6032,5.6036,5.6088,5.6142,5.6184,5.6226,5.6265,5.6294,5.6301,5.6343,5.6403,5.6438,5.6507,5.6564,5.6614,5.6633,5.6618,5.6616,5.6632,5.6637,5.6634,5.6639,5.6443,5.6611,5.661,5.6609,5.6608,5.6608,5.6136,5.6185,5.6224,5.6282,5.6313,5.6351,5.6398,5.6415,5.6466,5.6524,5.6522,5.6588,5.6624,5.669,5.6714,5.6765,5.6744,5.6767,5.6773,5.678,5.6787,5.6625,5.6774,5.6773,5.6773,5.6772,5.6772,0,5.6282,5.6307,5.636,5.6418,5.6463,5.6446,5.6488,5.6528,5.6587,5.6623,5.6669,5.6738,5.6793,5.6815,5.6869,5.6906,5.69,5.692,5.6918,5.6923,5.6802,5.6783,5.6924,5.6924,5.6924,5.6924,5.6924,5.6924,5.6363,5.6445,5.6454,5.6551,5.6574,5.6642,5.6668,5.6703,5.6732,5.6811,5.6857,5.6872,5.6902,5.6958,5.7008,5.7012,5.7034,5.7058,5.7059,5.6946,5.6931,5.6917,5.6899,5.7062,5.7062,5.7176,5.7177,5.7178]}]]